Flag for Colombia Weather past 2 weeks in Bogota, Colombia

Now
64 °F

Scattered clouds.


Feels Like: 64 °F
Forecast: N/A
Wind: 16 mph from East

Location: Bogota / Eldorado

Current Time: Feb 27, 2015 at 6:06:08 PM

Latest Report: Feb 27, 2015 at 5:00 PM


Visibility: N/A

Pressure: 30.23 "Hg

Humidity: 52%

Dew point: 46 °F

Location of BogotaLocation

Historic Weather in Bogota — Graph

°F

Bogota temperature yesterday

Maximum temperature yesterday: 70 °F (at 12:00 PM)
Minimum temperature yesterday: 46 °F (at 5:00 AM)
Average temperature yesterday: 57 °F

Past Weeks' High & Low Weather Summary

 TemperatureHumidityPressure
High81 °F (Feb 13, 9:00 PM)100% (Feb 16, 6:00 AM)30.41 "Hg (Feb 16, 6:00 AM)
Low37 °F (Feb 17, 5:00 AM)27% (Feb 23, 2:00 PM)29.90 "Hg (Feb 13, 9:00 PM)
Average57 °F72%30.30 "Hg
* Reported Feb 12 5:00 PM — Feb 27 5:00 PM, Bogota, Weather by CustomWeather, © 2015

Note: Actual official high and low records may vary slightly from our data, if they occured in-between our weather recording intervals... More about our weather records

Advertising

Bogota weather history for previous 24 hours

 ConditionsComfort  
Time TempWeatherWind HumidityBarometerVisibility
5:00 PM
Fri, Feb 27
64 °FScattered clouds.16 mph52%30.23 "HgN/A
4:00 PM68 °FScattered clouds.14 mph40%30.24 "HgN/A
3:00 PM66 °FPartly sunny.16 mph46%30.27 "HgN/A
2:00 PM66 °FPartly sunny.18 mph49%30.28 "HgN/A
1:00 PM68 °FPartly sunny.18 mph43%30.30 "HgN/A
12:00 PM66 °FPartly sunny.12 mph40%30.32 "HgN/A
11:00 AM48 °FPartly sunny.7 mph82%30.34 "HgN/A
10:00 AM48 °FScattered clouds.10 mph82%30.35 "HgN/A
9:00 AM61 °FScattered clouds.7 mph55%30.36 "HgN/A
8:00 AM57 °FPassing clouds.8 mph67%30.35 "HgN/A
7:00 AM48 °FPassing clouds.8 mph94%30.32 "HgN/A
6:00 AM48 °FPassing clouds.7 mph94%30.30 "HgN/A
5:00 AM46 °FPassing clouds.9 mph93%30.30 "HgN/A
4:00 AM45 °FPassing clouds.8 mph93%30.29 "HgN/A
3:00 AM46 °FPassing clouds.5 mph93%30.30 "HgN/A
2:00 AM48 °FPassing clouds.6 mph87%30.30 "HgN/A
1:00 AM48 °FPassing clouds.2 mph94%30.32 "HgN/A
12:00 AM52 °FPassing clouds.3 mph82%30.34 "HgN/A
11:00 PM
Thu, Feb 26
50 °FPassing clouds.8 mph88%30.34 "HgN/A
10:00 PM54 °FPassing clouds.2 mph77%30.33 "HgN/A
9:00 PM54 °FPassing clouds.2 mph77%30.32 "HgN/A
8:00 PM55 °FPassing clouds.2 mph72%30.30 "HgN/A
7:00 PM55 °FPassing clouds.5 mph72%30.27 "HgN/A
6:00 PM61 °FScattered clouds.9 mph59%30.23 "HgN/A
Weather by CustomWeather, © 2015

See weather overviewHow to use our weather pages